Temp
23 22 23 23 22 22 22 21 21 21 20 21 21 21 21 21 21 22 22 22 21 21 21 21 20 21 21 20 21 21 21 20 20 20 20 21 20 20 20 19 19 18 16
23 22 23 23 23 23 23 22 22 21 21 21 21 20 21 21 22 22 22 22 22 21 21 21 21 21 21 20 21 21 20 20 20 19 19 20 19 20 19 19 18 16 16
24 24 24 24 24 23 23 23 22 21 21 21 21 20 21 21 22 22 22 22 22 21 21 21 21 21 21 21 20 20 20 20 20 19 19 19 20 18 19 18 17 15 15
24 24 25 24 24 25 24 23 22 22 21 21 21 21 21 21 22 22 22 22 22 22 22 21 21 21 21 21 21 20 20 19 19 19 19 18 17 16 16 17 16 16 15
25 24 25 25 25 25 24 23 23 22 21 21 21 21 21 21 21 22 22 22 22 22 22 22 21 21 21 22 22 20 20 19 19 18 18 18 17 15 14 15 15 16 15
25 25 26 26 25 25 24 24 23 22 22 21 21 21 21 21 21 22 22 22 22 22 22 22 21 21 21 21 22 21 20 20 19 18 18 17 17 15 14 14 14 15 15
25 25 26 26 26 25 25 24 23 23 22 22 21 22 21 21 22 22 22 22 21 21 21 21 21 21 21 21 21 21 20 19 19 19 19 18 18 16 15 14 14 15 15
25 25 27 27 27 26 25 25 24 23 23 22 22 22 22 21 22 22 22 22 21 21 21 21 21 21 21 21 21 20 20 19 19 19 19 18 17 16 15 14 14 15 14
25 25 26 27 27 26 26 25 25 24 24 23 22 22 22 22 22 22 21 21 21 21 21 21 21 21 21 21 20 20 20 20 20 20 19 19 18 17 16 15 15 14 14
24 25 25 26 27 27 27 26 25 25 25 24 23 23 23 23 22 22 22 21 21 21 21 21 21 21 21 20 20 21 20 20 20 20 19 19 19 18 17 16 15 15 14
25 25 27 28 27 27 27 27 26 26 25 24 24 24 24 23 23 23 22 22 22 21 21 21 22 22 21 21 21 20 20 20 20 20 19 20 19 19 18 17 16 15 15
26 26 26 26 27 27 27 27 27 26 26 25 25 25 24 24 24 23 23 22 22 22 21 22 21 21 21 20 20 20 20 20 20 20 20 20 19 19 19 17 16 15 15
26 25 25 26 27 27 27 27 27 27 26 26 25 25 25 25 25 24 23 23 22 22 21 21 21 20 20 20 20 20 20 20 20 20 19 19 19 19 18 18 18 16 15
26 25 26 28 28 28 28 27 27 27 27 26 26 26 26 25 25 24 24 23 22 22 21 21 21 21 20 20 20 20 20 20 19 19 19 19 19 19 18 18 17 16 15
27 26 27 28 28 28 28 27 27 26 27 27 26 26 25 25 25 24 24 23 22 22 22 21 21 21 20 20 20 20 19 19 19 19 19 19 19 18 18 18 17 16 15
25 27 26 27 28 29 29 28 27 27 26 26 26 26 25 25 25 24 24 22 22 22 21 21 21 21 20 20 20 19 19 19 19 19 19 19 18 18 18 18 17 16 16
22 24 27 28 29 29 29 28 27 26 26 26 25 25 25 25 25 24 23 22 22 21 21 21 21 21 20 20 19 19 19 19 19 19 19 18 18 17 17 17 15 14 14
19 21 24 26 27 27 29 27 27 27 26 26 25 25 25 24 24 23 22 21 21 21 21 21 21 21 21 19 19 19 19 19 19 20 19 18 16 16 16 15 15 14 14
22 22 22 23 26 26 25 26 26 26 26 25 25 25 24 23 22 21 21 21 21 21 21 20 21 21 21 19 19 18 19 19 19 19 19 16 16 16 15 15 14 14 14
21 22 20 22 23 25 25 25 24 25 25 24 24 24 23 22 21 20 20 20 20 20 19 20 20 20 19 16 16 17 17 18 18 18 17 16 16 15 15 14 15 15 15
19 22 21 19 21 23 23 24 23 23 23 23 23 22 21 20 19 19 19 19 19 19 19 19 19 18 17 17 15 15 16 17 17 17 16 16 15 15 15 15 15 14 14
18 18 21 21 19 20 22 22 22 22 22 21 21 20 19 19 19 18 18 18 18 18 18 18 17 17 16 16 16 16 16 16 16 16 15 16 16 15 15 15 15 15 15
17 17 18 21 21 19 19 20 21 20 20 19 18 18 17 17 17 17 17 16 17 17 16 16 16 16 16 16 16 15 15 15 16 16 15 15 15 15 14 14 15 16 15
17 18 17 17 18 18 18 17 18 18 19 18 16 16 16 15 15 16 17 16 16 16 16 16 15 16 16 16 16 15 15 15 15 16 14 15 15 15 15 14 14 14 14
16 17 15 16 16 17 18 18 17 17 17 19 15 15 14 15 15 16 16 16 16 15 15 16 16 16 16 16 16 16 15 15 15 14 14 14 14 14 15 14 14 14 14
16 16 16 15 15 16 16 17 16 16 16 15 15 15 15 15 15 15 15 15 14 14 13 14 15 15 16 16 15 16 15 14 13 13 13 14 14 14 14 14 14 14 14
Height
1534 1537 1539 1542 1545 1548 1550 1552 1555 1557 1558 1560 1561 1563 1565 1566 1567 1567 1568 1568 1568 1568 1568 1567 1567 1565 1565 1563 1563 1561 1560 1559 1557 1555 1553 1549 1546 1545 1544 1544 1545 1545 1544
1531 1533 1534 1537 1539 1543 1546 1549 1552 1555 1556 1558 1560 1562 1564 1565 1566 1567 1567 1568 1568 1567 1567 1566 1565 1564 1563 1564 1562 1561 1560 1558 1556 1555 1551 1550 1549 1545 1544 1543 1542 1540 1542
1524 1527 1529 1532 1535 1538 1541 1545 1548 1552 1554 1556 1558 1560 1562 1564 1565 1566 1566 1567 1567 1567 1566 1566 1565 1564 1563 1563 1561 1560 1558 1557 1555 1554 1553 1551 1550 1548 1544 1543 1541 1537 1537
1519 1522 1524 1527 1530 1533 1538 1542 1545 1548 1551 1554 1557 1559 1561 1563 1563 1564 1565 1565 1565 1565 1564 1564 1563 1563 1562 1561 1560 1557 1557 1554 1554 1553 1553 1552 1551 1550 1545 1541 1538 1537 1535
1512 1515 1518 1521 1525 1530 1534 1538 1542 1545 1548 1551 1554 1557 1558 1560 1561 1562 1563 1564 1564 1563 1562 1562 1562 1561 1560 1558 1556 1555 1554 1553 1553 1552 1551 1548 1546 1546 1544 1537 1534 1531 1530
1507 1510 1514 1518 1522 1526 1530 1534 1538 1541 1545 1547 1550 1553 1555 1557 1559 1560 1561 1562 1562 1562 1561 1560 1560 1559 1557 1556 1553 1551 1549 1550 1548 1547 1544 1540 1537 1537 1537 1531 1529 1527 1525
1498 1503 1508 1512 1517 1521 1525 1529 1533 1537 1541 1544 1547 1549 1552 1554 1555 1557 1558 1559 1559 1559 1558 1558 1557 1555 1554 1552 1549 1548 1547 1546 1544 1540 1536 1530 1525 1523 1517 1522 1522 1521 1521
1492 1498 1502 1506 1512 1517 1521 1526 1529 1532 1536 1539 1542 1545 1548 1550 1552 1554 1555 1555 1555 1555 1555 1554 1553 1551 1550 1547 1545 1544 1543 1541 1539 1535 1531 1528 1523 1517 1509 1511 1516 1512 1513
1486 1489 1495 1501 1506 1511 1516 1520 1524 1528 1532 1535 1539 1541 1543 1545 1548 1550 1551 1551 1551 1551 1551 1550 1548 1547 1545 1543 1541 1539 1538 1535 1533 1530 1526 1524 1519 1513 1508 1510 1511 1509 1505
1483 1486 1490 1494 1500 1505 1510 1515 1520 1524 1528 1531 1534 1537 1539 1542 1544 1546 1547 1547 1547 1547 1546 1546 1544 1542 1541 1539 1537 1535 1533 1531 1529 1526 1522 1518 1516 1512 1510 1510 1508 1504 1501
1479 1481 1484 1489 1493 1499 1504 1509 1514 1518 1522 1526 1530 1533 1536 1538 1541 1542 1543 1544 1544 1543 1542 1541 1540 1539 1537 1536 1534 1532 1530 1527 1525 1522 1518 1515 1512 1509 1507 1507 1506 1505 1505
1477 1478 1481 1484 1488 1492 1498 1503 1508 1511 1516 1521 1525 1528 1531 1533 1535 1537 1538 1539 1539 1539 1539 1539 1537 1536 1534 1532 1531 1529 1526 1523 1520 1517 1514 1510 1508 1506 1504 1505 1506 1505 1505
1470 1475 1477 1479 1483 1487 1491 1496 1502 1506 1511 1515 1519 1522 1525 1527 1529 1531 1533 1534 1534 1535 1536 1535 1534 1532 1530 1528 1527 1525 1522 1519 1516 1512 1509 1506 1504 1503 1502 1503 1502 1503 1505
1466 1467 1472 1474 1478 1482 1486 1490 1495 1500 1504 1508 1513 1516 1520 1522 1524 1526 1527 1527 1529 1531 1532 1531 1530 1528 1526 1524 1522 1520 1517 1514 1511 1508 1506 1503 1501 1500 1500 1501 1501 1501 1504
1462 1462 1464 1469 1473 1476 1481 1485 1490 1493 1498 1503 1507 1510 1514 1516 1518 1519 1521 1522 1525 1528 1528 1527 1527 1525 1522 1520 1517 1515 1513 1511 1508 1506 1502 1500 1498 1498 1498 1498 1498 1500 1502
1460 1459 1461 1464 1468 1471 1474 1479 1484 1488 1491 1495 1500 1505 1508 1511 1512 1514 1515 1518 1521 1523 1524 1524 1522 1520 1519 1517 1514 1511 1510 1508 1506 1503 1500 1498 1496 1496 1497 1496 1497 1500 1502
1459 1457 1458 1460 1463 1466 1470 1474 1478 1483 1486 1490 1494 1498 1502 1505 1507 1509 1511 1514 1516 1518 1519 1519 1518 1516 1515 1513 1511 1510 1508 1506 1504 1501 1499 1497 1495 1494 1495 1495 1497 1497 1502
1458 1456 1454 1456 1458 1462 1465 1469 1473 1477 1481 1485 1489 1493 1496 1499 1502 1504 1507 1510 1512 1514 1515 1514 1514 1513 1512 1511 1509 1508 1507 1505 1503 1501 1498 1495 1494 1494 1495 1495 1497 1499 1502
1457 1454 1453 1454 1456 1459 1462 1467 1468 1472 1476 1480 1484 1489 1492 1495 1498 1501 1504 1507 1509 1511 1511 1511 1510 1510 1509 1508 1507 1506 1506 1504 1503 1501 1498 1496 1495 1495 1495 1496 1497 1499 1502
1456 1451 1451 1452 1453 1456 1460 1462 1466 1467 1470 1475 1480 1484 1487 1490 1494 1498 1502 1504 1506 1508 1509 1509 1508 1507 1506 1505 1505 1505 1505 1504 1502 1500 1497 1495 1495 1495 1495 1496 1498 1500 1502
1455 1453 1449 1450 1451 1452 1454 1457 1461 1466 1470 1472 1476 1479 1482 1487 1491 1495 1498 1500 1503 1505 1506 1506 1506 1505 1504 1504 1503 1503 1502 1501 1500 1499 1497 1496 1496 1496 1496 1497 1497 1499 1501
1454 1452 1450 1448 1448 1450 1451 1454 1458 1463 1467 1470 1475 1478 1481 1484 1488 1493 1498 1499 1501 1502 1503 1504 1504 1505 1504 1503 1502 1501 1500 1499 1498 1498 1496 1495 1496 1497 1498 1497 1498 1499 1501
1453 1451 1450 1448 1446 1447 1450 1452 1455 1459 1465 1471 1475 1479 1482 1485 1487 1490 1498 1501 1502 1502 1503 1502 1503 1503 1502 1501 1500 1499 1498 1497 1497 1497 1497 1495 1496 1498 1499 1499 1499 1499 1500
1450 1448 1447 1447 1446 1445 1446 1450 1453 1456 1460 1467 1479 1480 1486 1486 1487 1488 1495 1499 1501 1502 1502 1502 1502 1501 1500 1499 1498 1497 1497 1496 1495 1494 1495 1495 1496 1497 1498 1500 1500 1500 1501
1448 1445 1444 1443 1443 1442 1443 1445 1447 1453 1456 1453 1477 1476 1484 1484 1488 1491 1494 1499 1500 1502 1502 1501 1501 1500 1498 1497 1496 1495 1495 1495 1495 1494 1494 1494 1495 1496 1498 1499 1500 1501 1501
1444 1441 1440 1438 1437 1439 1439 1438 1443 1447 1453 1462 1469 1473 1483 1482 1488 1494 1498 1501 1502 1501 1503 1501 1500 1499 1497 1495 1493 1491 1492 1493 1492 1494 1494 1494 1494 1495 1496 1498 1499 1499 1500
Wind_Speed
24 23 25 25 23 23 23 21 20 17 16 17 14 12 10 8 8 7 6 4 5 6 4 5 6 8 6 8 8 11 13 14 16 19 18 16 14 10 8 3 6 10 11
23 23 27 28 28 26 23 23 22 20 19 18 15 12 10 10 9 7 4 4 4 4 6 6 6 6 6 9 9 12 13 15 16 17 16 9 9 10 8 8 7 18 17
26 26 28 27 28 30 29 26 24 21 19 18 17 15 13 11 9 9 9 7 6 7 8 7 7 9 10 12 13 14 15 15 18 17 14 10 12 14 12 14 18 11 11
27 25 29 28 27 25 27 28 25 23 20 21 21 18 16 13 12 11 11 10 10 11 11 10 10 12 14 17 19 18 16 16 16 18 18 16 15 12 13 17 20 15 14
28 27 29 30 26 26 24 26 26 24 22 24 23 21 20 18 15 13 12 13 12 13 11 12 13 14 16 19 23 19 17 18 18 16 14 13 19 24 23 26 24 24 23
28 27 26 28 29 28 25 25 26 25 24 24 24 24 22 20 19 17 14 14 14 14 13 14 15 17 18 20 19 18 19 18 19 16 14 18 25 33 31 30 26 24 22
31 29 28 28 30 30 27 25 26 26 25 27 27 25 24 23 23 21 20 19 19 18 18 18 19 20 21 22 22 20 20 20 20 20 22 26 32 30 30 31 23 22 20
28 29 33 30 29 28 23 27 26 26 26 26 28 27 25 25 24 23 22 21 21 20 18 20 22 24 25 25 22 22 21 22 22 25 27 27 30 37 34 31 23 23 25
26 30 34 35 33 33 31 28 27 24 24 24 23 26 24 24 24 22 21 21 20 21 22 21 22 22 21 20 19 21 22 24 23 20 25 27 27 31 33 16 17 24 6
20 24 27 33 36 34 33 32 30 26 23 20 20 21 20 19 18 18 18 18 18 17 19 19 18 17 17 18 20 22 18 20 21 23 24 26 25 27 22 13 14 23 23
19 22 27 29 31 33 34 32 31 28 26 24 20 20 20 19 19 19 17 16 16 16 16 16 16 16 18 18 18 19 20 21 23 23 25 24 23 21 14 11 13 19 7
17 20 23 23 26 29 32 30 28 26 28 26 25 24 24 24 24 24 22 19 18 15 14 13 12 13 15 17 19 20 21 24 26 27 27 25 20 16 10 7 12 14 8
12 19 21 24 23 25 25 29 31 28 25 25 25 25 23 21 20 21 20 20 18 16 12 12 14 16 19 20 20 21 24 28 27 26 23 20 18 14 9 7 8 7 5
12 20 24 25 24 22 22 23 27 32 30 27 26 25 24 22 21 20 19 20 18 14 11 12 15 18 20 21 23 25 26 24 21 20 19 18 16 11 7 6 8 7 6
14 19 26 29 27 22 21 22 22 26 35 33 29 25 24 20 21 22 21 21 17 13 13 15 17 20 22 23 23 20 19 19 17 16 16 15 10 7 6 6 5 6 7
15 17 23 28 29 26 23 21 21 23 26 35 39 35 32 27 22 20 22 22 15 16 16 17 19 22 19 17 17 15 15 15 15 15 14 12 8 6 5 5 5 6 5
16 16 22 23 26 25 25 21 20 21 22 23 27 29 27 25 22 20 22 20 19 17 16 18 19 18 15 13 11 11 12 15 16 12 12 11 8 4 2 5 9 10 11
20 16 19 24 26 26 25 22 22 22 20 20 22 23 23 23 22 21 22 21 19 17 16 17 15 14 10 10 8 8 11 9 12 15 15 12 7 5 3 4 6 8 10
30 23 18 21 25 25 24 24 24 23 22 21 21 21 22 21 20 21 22 20 17 15 16 14 12 10 8 7 7 5 6 7 11 14 14 9 6 5 4 2 5 6 9
28 25 16 18 21 25 25 25 24 24 23 21 20 20 20 19 19 20 20 18 17 16 14 11 9 9 7 5 3 4 5 7 9 11 10 9 4 3 1 7 7 6 6
25 28 16 15 19 23 28 29 27 25 22 21 21 20 19 19 18 19 19 18 16 14 11 10 9 6 5 4 4 4 7 9 9 8 6 7 2 1 2 3 5 9 9
22 20 22 16 18 22 29 30 29 26 24 20 19 20 20 20 19 17 17 17 15 13 12 10 8 6 6 7 7 7 8 10 7 6 3 3 3 5 5 6 7 9 8
22 17 17 18 18 20 27 30 31 26 21 19 19 20 20 19 18 16 15 15 13 11 10 9 7 7 7 7 9 10 8 6 6 4 0 3 6 5 4 4 7 8 10
23 19 17 20 20 20 28 27 27 26 22 17 18 19 18 18 17 17 14 13 12 11 9 7 6 4 3 4 5 5 6 5 5 3 2 5 6 5 3 4 7 9 11
22 20 19 20 20 22 28 32 26 26 24 25 27 21 20 18 16 15 15 13 11 10 8 7 5 3 2 2 2 2 2 1 2 0 2 4 9 9 8 7 9 7 6
26 22 21 20 22 25 28 32 29 29 30 31 28 23 18 16 13 10 10 10 8 8 6 5 2 2 3 3 2 2 2 1 2 1 2 4 4 8 12 14 13 12 12
Wind_Direction
231 231 235 234 232 229 229 226 225 219 221 222 225 230 229 231 232 257 285 290 277 267 295 335 340 334 332 339 332 332 334 339 335 337 334 330 316 322 303 325 309 278 258
232 231 237 239 239 237 235 232 231 228 228 226 223 225 230 230 236 244 256 244 262 285 292 309 338 356 340 329 335 331 332 339 337 338 336 338 322 302 307 305 306 314 299
227 233 236 239 239 237 234 234 231 228 228 221 213 222 225 231 243 241 251 252 271 289 302 311 322 329 329 329 326 323 329 335 332 334 333 331 330 322 313 321 324 308 281
230 231 236 236 234 232 233 232 231 226 225 217 218 223 223 229 238 248 241 254 280 291 286 288 302 306 311 314 311 308 322 326 328 327 336 327 330 339 321 315 320 319 297
228 230 235 236 236 228 226 226 227 226 226 221 223 227 227 228 238 245 244 257 278 302 289 276 289 301 303 318 309 295 299 306 314 312 314 318 297 294 301 302 303 294 303
227 231 235 235 231 229 226 225 227 227 225 222 224 228 233 234 236 243 254 262 272 282 287 280 285 293 300 308 303 291 286 291 302 303 299 277 281 285 287 283 289 296 306
217 221 226 228 227 228 226 224 226 226 226 227 228 234 240 241 244 247 258 264 270 275 278 281 285 289 293 296 295 290 288 290 294 293 283 285 281 283 282 271 268 274 281
217 217 224 226 226 226 221 225 226 227 227 229 232 236 241 245 247 253 262 268 270 276 278 281 283 284 288 291 291 289 293 294 296 298 295 292 285 293 293 261 260 256 264
211 215 221 226 229 228 226 220 219 221 229 235 237 237 240 245 251 259 267 272 277 276 281 288 288 287 289 291 294 295 295 294 299 301 304 299 306 312 307 265 283 282 182
219 219 221 225 228 232 234 228 229 229 230 230 235 239 239 241 251 260 266 273 278 280 283 291 292 291 290 290 294 298 304 308 308 308 309 308 314 322 314 285 308 297 234
221 219 224 233 234 230 232 232 230 231 229 224 223 229 231 241 250 258 265 274 279 279 281 290 294 293 291 292 293 299 305 308 311 313 310 312 315 322 309 275 313 314 273
239 221 220 222 228 230 231 232 229 228 229 227 224 229 237 249 255 261 264 266 270 271 278 289 297 298 297 297 299 303 309 309 309 313 314 315 315 318 301 277 294 301 257
253 223 219 219 224 228 229 226 225 226 224 223 224 230 238 241 247 256 258 257 260 263 274 285 293 295 295 297 300 303 306 306 310 312 311 315 314 310 292 258 297 265 225
266 227 225 226 225 231 232 221 222 223 221 220 220 225 225 241 252 254 251 249 250 258 272 281 291 297 296 299 302 302 305 311 320 321 316 315 307 304 286 268 290 220 202
272 238 225 224 229 237 228 227 225 225 223 221 222 219 226 247 262 252 246 242 239 249 264 276 289 297 300 303 311 314 316 320 325 327 329 325 310 288 268 282 287 190 182
295 263 239 226 236 238 236 225 222 219 220 225 230 238 247 255 255 247 239 236 228 242 261 273 288 296 305 311 313 314 320 326 326 329 329 328 317 294 270 276 163 143 155
306 279 250 237 229 229 231 220 219 215 218 221 226 234 240 241 244 243 232 225 227 242 253 272 288 297 310 315 324 329 330 329 332 344 341 337 341 341 296 180 163 150 147
324 302 265 246 234 226 225 216 214 217 221 221 220 225 231 236 240 230 221 220 228 237 253 272 283 292 308 310 319 331 332 352 357 354 347 359 20 47 118 151 171 146 158
344 313 289 260 244 233 222 220 212 209 212 217 220 225 230 231 226 218 216 219 228 236 252 264 271 284 293 296 321 336 332 334 339 350 357 21 38 95 119 91 142 155 164
349 336 294 279 252 244 232 222 219 213 213 214 214 215 218 216 214 213 215 217 222 235 245 250 261 271 282 296 341 319 320 328 336 348 359 15 25 150 84 132 133 138 150
346 350 316 290 276 252 228 221 218 217 212 207 208 210 207 205 203 206 208 212 218 225 228 236 245 262 292 306 306 316 303 312 325 338 357 10 72 60 123 152 164 144 144
343 335 334 309 286 258 229 217 211 208 206 207 208 202 197 195 197 204 210 208 210 213 215 222 231 251 273 289 294 289 298 317 329 339 2 59 90 88 92 114 111 126 126
328 324 305 306 293 259 223 213 210 203 195 194 197 193 192 192 190 190 200 200 199 201 205 217 229 245 273 293 298 288 292 314 320 325 289 126 129 114 120 131 124 132 140
317 318 301 285 279 251 227 215 210 194 189 183 194 186 186 178 175 174 183 194 196 198 205 208 217 241 279 300 302 299 287 286 298 310 191 196 190 179 183 188 167 171 176
311 304 298 277 275 261 234 222 206 191 192 191 195 178 175 174 174 173 177 186 185 182 193 194 193 205 234 261 263 293 314 307 345 306 184 209 215 214 218 216 205 219 221
309 293 293 283 272 255 241 219 199 186 177 174 173 168 170 164 162 166 174 185 187 175 194 191 204 277 308 329 315 292 300 308 96 111 193 201 201 223 229 235 232 236 252